Back to catalog

COSMOS 1275 DEB

AlivePO
NORAD 42210·DEBRIS·🇷🇺 Russia

Launched Jun 4, 1981 from Plesetsk Cosmodrome

Loading…

Next Passes (next 24 hours)

TLE

FreshSource: Space-Track

Epoch: Sep 14, 2026, 14:41 UTC

1 42210U 81053UA  26257.61222402  .00000623  00000-0  64347-3 0  9995
2 42210  83.0083 205.5759 0108709 114.5852   6.4298 13.71791698639680

Track COSMOS 1275 DEB in real time with AllMySat

Download on the App Store